Terminal Aerodrome Forecast
Issued by NWS Jackson, KY

Home | Current Version | Previous Version | Text Only | Print | Product List | Glossary On
Versions: 1 2 3 4 5 6 7 8 9 10 11 12 13 14 15 16 17 18
000
FTUS43 KJKL 101304 AAB
TAFJKL
TAF AMD
KJKL 101304Z 1013/1112 VRB03KT P6SM BKN025
     FM101400 VRB05KT P6SM FEW040 SCT080
     FM101600 25006KT P6SM SCT050 SCT120=

USA.gov is the U.S. government's official web portal to all federal, state and local government web resources and services.